| time (UTC) | temp C | wind direction | speed KPH | gust KPH | rain 1hr cm | rain 24hr cm | rain mn cm | humidity % | barometer mb |
| 20260510210803 | 20 | 100 | 8.0 | 19.3 | 0.00 | 0.00 | 0.00 | 34 | 1019.3 |
| 20260510205804 | 19 | 75 | 1.6 | 11.3 | 0.00 | 0.00 | 0.00 | 35 | 1019.3 |
| 20260510204804 | 19 | 56 | 14.5 | 20.9 | 0.00 | 0.00 | 0.00 | 34 | 1019.3 |
| 20260510204303 | 19 | 60 | 4.8 | 16.1 | 0.00 | 0.00 | 0.00 | 36 | 1019.3 |
| 20260510203803 | 20 | 47 | 4.8 | 11.3 | 0.00 | 0.00 | 0.00 | 38 | 1019.3 |
| 20260510202804 | 19 | 353 | 9.7 | 19.3 | 0.00 | 0.00 | 0.00 | 37 | 1019.3 |
| 20260510201804 | 19 | 78 | 11.3 | 19.3 | 0.00 | 0.00 | 0.00 | 38 | 1019.3 |
| 20260510201304 | 19 | 59 | 9.7 | 19.3 | 0.00 | 0.00 | 0.00 | 38 | 1019.3 |
| 20260510193804 | 19 | 7 | 4.8 | 11.3 | 0.00 | 0.00 | 0.00 | 34 | 1019.3 |
| 20260510193303 | 18 | 327 | 9.7 | 14.5 | 0.00 | 0.00 | 0.00 | 35 | 1019.3 |
| 20260510192803 | 18 | 41 | 9.7 | 19.3 | 0.00 | 0.00 | 0.00 | 35 | 1019.3 |
| 20260510191304 | 18 | 149 | 11.3 | 16.1 | 0.00 | 0.00 | 0.00 | 35 | 1019.3 |
| 20260510190804 | 18 | 27 | 4.8 | 14.5 | 0.00 | 0.00 | 0.00 | 37 | 1019.3 |
| 20260510185803 | 18 | 47 | 9.7 | 19.3 | 0.00 | 0.00 | 0.00 | 38 | 1019.3 |
| 20260510185306 | 18 | 59 | 11.3 | 19.3 | 0.00 | 0.00 | 0.00 | 38 | 1019.3 |
| 20260510184804 | 18 | 62 | 4.8 | 19.3 | 0.00 | 0.00 | 0.00 | 39 | 1019.3 |
| 20260510183304 | 17 | 78 | 4.8 | 19.3 | 0.00 | 0.00 | 0.00 | 40 | 1019.3 |
| 20260510182803 | 17 | 0 | 11.3 | 19.3 | 0.00 | 0.00 | 0.00 | 43 | 1019.3 |
| 20260510181803 | 17 | 353 | 11.3 | 19.3 | 0.00 | 0.00 | 0.00 | 43 | 1019.3 |
| 20260510175306 | 17 | 102 | 9.7 | 19.3 | 0.00 | 0.00 | 0.00 | 44 | 1019.3 |
| 20260510174804 | 16 | 34 | 3.2 | 14.5 | 0.00 | 0.00 | 0.00 | 45 | 1019.3 |
| 20260510172306 | 16 | 57 | 8.0 | 16.1 | 0.00 | 0.00 | 0.00 | 46 | 1019.3 |
| 20260510171303 | 16 | 253 | 4.8 | 12.9 | 0.00 | 0.00 | 0.00 | 46 | 1019.3 |
| 20260510170303 | 16 | 353 | 8.0 | 16.1 | 0.00 | 0.00 | 0.00 | 49 | 1019.3 |
| 20260510165803 | 15 | 16 | 6.4 | 12.9 | 0.00 | 0.00 | 0.00 | 48 | 1019.3 |
| 20260510165306 | 15 | 58 | 6.4 | 11.3 | 0.00 | 0.00 | 0.00 | 49 | 1019.3 |
| 20260510164304 | 14 | 57 | 8.0 | 12.9 | 0.00 | 0.00 | 0.00 | 54 | 1019.3 |
| 20260510162803 | 14 | 96 | 4.8 | 9.7 | 0.00 | 0.00 | 0.00 | 58 | 1019.3 |
| 20260510162306 | 13 | 60 | 4.8 | 12.9 | 0.00 | 0.00 | 0.00 | 58 | 1019.3 |
| 20260510155803 | 14 | 170 | 8.0 | 16.1 | 0.00 | 0.00 | 0.00 | 62 | 1018.8 |
| 20260510154804 | 13 | 124 | 4.8 | 11.3 | 0.00 | 0.00 | 0.00 | 65 | 1018.8 |
| 20260510154304 | 12 | 128 | 8.0 | 16.1 | 0.00 | 0.00 | 0.00 | 67 | 1018.8 |
| 20260510153303 | 13 | 158 | 8.0 | 14.5 | 0.00 | 0.00 | 0.00 | 67 | 1018.8 |
| 20260510152804 | 12 | 138 | 6.4 | 12.9 | 0.00 | 0.00 | 0.00 | 68 | 1018.8 |
| 20260510150803 | 12 | 149 | 8.0 | 14.5 | 0.00 | 0.00 | 0.00 | 71 | 1018.8 |
| 20260510150304 | 12 | 160 | 8.0 | 19.3 | 0.00 | 0.00 | 0.00 | 72 | 1018.8 |
| 20260510145804 | 12 | 111 | 9.7 | 12.9 | 0.00 | 0.00 | 0.00 | 72 | 1018.8 |
| 20260510145306 | 12 | 109 | 8.0 | 16.1 | 0.00 | 0.00 | 0.00 | 71 | 1018.8 |
| 20260510144804 | 11 | 118 | 4.8 | 11.3 | 0.00 | 0.00 | 0.00 | 73 | 1018.8 |
| 20260510144304 | 11 | 123 | 8.0 | 12.9 | 0.00 | 0.00 | 0.00 | 75 | 1018.8 |
| 20260510143805 | 11 | 116 | 9.7 | 19.3 | 0.00 | 0.00 | 0.00 | 76 | 1018.8 |
| 20260510143305 | 10 | 148 | 6.4 | 12.9 | 0.00 | 0.00 | 0.00 | 77 | 1018.8 |
| 20260510142804 | 10 | 240 | 6.4 | 9.7 | 0.00 | 0.00 | 0.00 | 77 | 1018.8 |
| 20260510142306 | 10 | 197 | 4.8 | 11.3 | 0.00 | 0.00 | 0.00 | 77 | 1018.8 |
| 20260510141804 | 10 | 165 | 4.8 | 11.3 | 0.00 | 0.00 | 0.00 | 78 | 1018.8 |
| 20260510141305 | 10 | 103 | 8.0 | 12.9 | 0.00 | 0.00 | 0.00 | 78 | 1018.8 |
| 20260510140805 | 10 | 166 | 6.4 | 11.3 | 0.00 | 0.00 | 0.00 | 79 | 1018.8 |
| 20260510140305 | 10 | 128 | 3.2 | 9.7 | 0.00 | 0.00 | 0.00 | 80 | 1018.8 |
| 20260510135306 | 9 | 139 | 6.4 | 12.9 | 0.00 | 0.00 | 0.00 | 81 | 1018.8 |
| 20260510134805 | 9 | 108 | 4.8 | 11.3 | 0.00 | 0.00 | 0.00 | 80 | 1018.8 |
| 20260510134305 | 9 | 132 | 8.0 | 12.9 | 0.00 | 0.00 | 0.00 | 81 | 1018.8 |
| 20260510133805 | 9 | 145 | 8.0 | 11.3 | 0.00 | 0.00 | 0.00 | 82 | 1018.8 |
| 20260510133304 | 8 | 111 | 3.2 | 9.7 | 0.00 | 0.00 | 0.00 | 84 | 1018.8 |
| 20260510132805 | 8 | 143 | 8.0 | 14.5 | 0.00 | 0.00 | 0.00 | 85 | 1018.8 |
| 20260510131305 | 8 | 141 | 4.8 | 9.7 | 0.00 | 0.00 | 0.00 | 85 | 1018.8 |
| 20260510125307 | 8 | 96 | 4.8 | 9.7 | 0.00 | 0.00 | 0.00 | 86 | 1018.8 |
| 20260510124304 | 8 | 57 | 3.2 | 4.8 | 0.00 | 0.00 | 0.00 | 86 | 1018.8 |
| 20260510123805 | 8 | 69 | 6.4 | 8.0 | 0.00 | 0.00 | 0.00 | 86 | 1018.8 |
| 20260510123305 | 8 | 54 | 3.2 | 8.0 | 0.00 | 0.00 | 0.00 | 86 | 1018.8 |
| 20260510121805 | 8 | 51 | 6.4 | 11.3 | 0.00 | 0.00 | 0.00 | 86 | 1018.8 |
| 20260510120305 | 8 | 60 | 6.4 | 9.7 | 0.00 | 0.00 | 0.00 | 85 | 1018.8 |
| 20260510115805 | 8 | 45 | 4.8 | 9.7 | 0.00 | 0.00 | 0.00 | 85 | 1018.8 |
| 20260510115306 | 8 | 63 | 8.0 | 11.3 | 0.00 | 0.00 | 0.00 | 85 | 1018.8 |
| 20260510113805 | 8 | 48 | 4.8 | 11.3 | 0.00 | 0.00 | 0.00 | 85 | 1018.8 |
| 20260510112805 | 8 | 66 | 8.0 | 16.1 | 0.00 | 0.00 | 0.00 | 85 | 1018.8 |
| 20260510112306 | 8 | 66 | 9.7 | 16.1 | 0.00 | 0.00 | 0.00 | 84 | 1018.8 |
| 20260510111805 | 8 | 56 | 8.0 | 16.1 | 0.00 | 0.00 | 0.00 | 84 | 1018.8 |
| 20260510110805 | 8 | 63 | 4.8 | 11.3 | 0.00 | 0.00 | 0.00 | 84 | 1018.8 |
| 20260510105306 | 8 | 54 | 8.0 | 12.9 | 0.00 | 0.00 | 0.00 | 81 | 1018.8 |
| 20260510104805 | 8 | 46 | 6.4 | 9.7 | 0.00 | 0.00 | 0.00 | 79 | 1018.3 |
| 20260510104305 | 8 | 65 | 8.0 | 12.9 | 0.00 | 0.00 | 0.00 | 79 | 1018.3 |
| 20260510103805 | 9 | 56 | 4.8 | 16.1 | 0.00 | 0.00 | 0.00 | 76 | 1018.3 |
| 20260510103305 | 9 | 77 | 4.8 | 9.7 | 0.00 | 0.00 | 0.00 | 75 | 1018.3 |
| 20260510102805 | 9 | 61 | 4.8 | 9.7 | 0.00 | 0.00 | 0.00 | 75 | 1018.3 |
| 20260510102306 | 9 | 87 | 4.8 | 9.7 | 0.00 | 0.00 | 0.00 | 75 | 1018.3 |
| 20260510101805 | 9 | 93 | 4.8 | 9.7 | 0.00 | 0.00 | 0.00 | 75 | 1018.3 |
| 20260510100805 | 9 | 101 | 6.4 | 12.9 | 0.00 | 0.00 | 0.00 | 74 | 1018.3 |
| 20260510095805 | 9 | 109 | 8.0 | 12.9 | 0.00 | 0.00 | 0.00 | 74 | 1008.2 |
| 20260510095306 | 9 | 122 | 6.4 | 9.7 | 0.00 | 0.00 | 0.00 | 74 | 1008.2 |
| 20260510093305 | 9 | 104 | 3.2 | 8.0 | 0.00 | 0.00 | 0.00 | 74 | 1008.2 |
| 20260510092307 | 9 | 78 | 3.2 | 4.8 | 0.00 | 0.00 | 0.00 | 74 | 1008.2 |
| 20260510091805 | 9 | 75 | 3.2 | 8.0 | 0.00 | 0.00 | 0.00 | 74 | 1008.2 |
| 20260510090805 | 9 | 75 | 3.2 | 4.8 | 0.00 | 0.00 | 0.00 | 74 | 1008.2 |
| 20260510085805 | 9 | 83 | 4.8 | 8.0 | 0.00 | 0.00 | 0.00 | 74 | 1008.2 |
| 20260510084304 | 9 | 128 | 3.2 | 4.8 | 0.00 | 0.00 | 0.00 | 74 | 1008.2 |
| 20260510082306 | 9 | 128 | 4.8 | 8.0 | 0.00 | 0.00 | 0.00 | 73 | 1008.2 |
| 20260510081304 | 9 | 148 | 3.2 | 4.8 | 0.00 | 0.00 | 0.00 | 73 | 1008.2 |
| 20260510075805 | 9 | 121 | 4.8 | 8.0 | 0.00 | 0.00 | 0.00 | 72 | 1008.2 |
| 20260510074806 | 9 | 34 | 1.6 | 4.8 | 0.00 | 0.00 | 0.00 | 72 | 1008.2 |
| 20260510074305 | 9 | 34 | 3.2 | 4.8 | 0.00 | 0.00 | 0.00 | 72 | 1008.2 |
| 20260510073805 | 9 | 34 | 3.2 | 4.8 | 0.00 | 0.00 | 0.00 | 71 | 1008.2 |
| 20260510071804 | 9 | 313 | 1.6 | 3.2 | 0.00 | 0.00 | 0.00 | 72 | 1008.2 |
| 20260510071304 | 9 | 313 | 0.0 | 0.0 | 0.00 | 0.00 | 0.00 | 72 | 1008.2 |
| 20260510070305 | 9 | 313 | 0.0 | 3.2 | 0.00 | 0.00 | 0.00 | 72 | 1008.2 |
| 20260510065804 | 9 | 313 | 1.6 | 3.2 | 0.00 | 0.00 | 0.00 | 72 | 1008.2 |
| 20260510064305 | 9 | 313 | 3.2 | 4.8 | 0.00 | 0.00 | 0.00 | 73 | 1008.2 |
| 20260510063304 | 9 | 313 | 3.2 | 4.8 | 0.00 | 0.00 | 0.00 | 74 | 1008.2 |
| 20260510062804 | 9 | 313 | 1.6 | 8.0 | 0.00 | 0.00 | 0.00 | 75 | 1008.2 |
| 20260510062307 | 9 | 342 | 1.6 | 3.2 | 0.00 | 0.00 | 0.00 | 76 | 1008.2 |
| 20260510061804 | 9 | 342 | 1.6 | 3.2 | 0.00 | 0.00 | 0.00 | 76 | 1008.2 |
| 20260510060816 | 9 | 342 | 4.8 | 9.7 | 0.00 | 0.00 | 0.00 | 76 | 1008.2 |
| 20260510055306 | 9 | 3 | 3.2 | 4.8 | 0.00 | 0.00 | 0.00 | 76 | 1008.2 |
| 20260510054804 | 9 | 344 | 6.4 | 8.0 | 0.00 | 0.00 | 0.00 | 76 | 1008.2 |
| 20260510054305 | 9 | 351 | 1.6 | 4.8 | 0.00 | 0.00 | 0.00 | 76 | 1008.2 |
| 20260510052805 | 9 | 11 | 8.0 | 11.3 | 0.00 | 0.00 | 0.00 | 75 | 1008.2 |
| 20260510051805 | 10 | 11 | 9.7 | 12.9 | 0.00 | 0.00 | 0.00 | 74 | 1008.2 |
| 20260510050804 | 10 | 337 | 8.0 | 11.3 | 0.00 | 0.00 | 0.00 | 73 | 1008.2 |
| 20260510045306 | 10 | 349 | 8.0 | 14.5 | 0.00 | 0.00 | 0.00 | 75 | 1008.2 |
| 20260510044804 | 10 | 21 | 8.0 | 11.3 | 0.00 | 0.00 | 0.00 | 75 | 1008.2 |
| 20260510041805 | 10 | 21 | 6.4 | 11.3 | 0.00 | 0.00 | 0.00 | 75 | 1008.2 |
| 20260510040305 | 10 | 4 | 8.0 | 14.5 | 0.00 | 0.00 | 0.00 | 72 | 1008.2 |
| 20260510035306 | 10 | 11 | 9.7 | 16.1 | 0.00 | 0.00 | 0.00 | 69 | 1008.2 |
| 20260510034304 | 10 | 357 | 12.9 | 20.9 | 0.00 | 0.00 | 0.00 | 66 | 1008.2 |
| 20260510033805 | 10 | 1 | 9.7 | 24.1 | 0.00 | 0.00 | 0.00 | 66 | 1008.2 |
| 20260510032805 | 11 | 354 | 11.3 | 19.3 | 0.00 | 0.00 | 0.00 | 67 | 1008.2 |
| 20260510030804 | 11 | 2 | 16.1 | 24.1 | 0.00 | 0.00 | 0.00 | 67 | 1008.2 |
| 20260510030305 | 11 | 347 | 16.1 | 27.4 | 0.00 | 0.00 | 0.00 | 67 | 1008.2 |
| 20260510025306 | 11 | 1 | 17.7 | 32.2 | 0.00 | 0.00 | 0.00 | 67 | 1008.2 |
| 20260510024305 | 11 | 2 | 19.3 | 33.8 | 0.00 | 0.00 | 0.00 | 67 | 1008.2 |
| 20260510023804 | 11 | 354 | 16.1 | 32.2 | 0.00 | 0.00 | 0.00 | 68 | 1008.2 |
| 20260510022805 | 11 | 5 | 29.0 | 48.3 | 0.00 | 0.00 | 0.00 | 69 | 1008.2 |
| 20260510022306 | 11 | 1 | 14.5 | 37.0 | 0.00 | 0.00 | 0.00 | 69 | 1008.2 |
| 20260510021804 | 11 | 354 | 20.9 | 45.1 | 0.00 | 0.00 | 0.00 | 68 | 1008.2 |
| 20260510020305 | 11 | 352 | 27.4 | 49.9 | 0.00 | 0.00 | 0.00 | 67 | 1008.2 |
| 20260510015805 | 11 | 358 | 25.7 | 37.0 | 0.00 | 0.00 | 0.00 | 67 | 1008.2 |
| 20260510015306 | 12 | 337 | 20.9 | 37.0 | 0.00 | 0.00 | 0.00 | 67 | 1008.2 |
| 20260510012805 | 12 | 4 | 16.1 | 45.1 | 0.00 | 0.00 | 0.00 | 61 | 1008.2 |
| 20260510012307 | 13 | 7 | 30.6 | 57.9 | 0.00 | 0.00 | 0.00 | 60 | 1008.2 |
| 20260510011305 | 13 | 358 | 24.1 | 45.1 | 0.00 | 0.00 | 0.00 | 57 | 1008.2 |
| 20260510005804 | 14 | 351 | 33.8 | 53.1 | 0.00 | 0.00 | 0.00 | 55 | 1008.2 |
| 20260510001805 | 22 | 46 | 8.0 | 16.1 | 0.00 | 0.00 | 0.00 | 24 | 1008.2 |
| 20260510000805 | 22 | 38 | 6.4 | 12.9 | 0.00 | 0.00 | 0.00 | 26 | 1008.2 |
| 20260509235805 | 22 | 64 | 11.3 | 19.3 | 0.00 | 0.00 | 0.00 | 26 | 1008.2 |
| 20260509235307 | 22 | 37 | 9.7 | 19.3 | 0.00 | 0.00 | 0.00 | 23 | 1008.2 |
| 20260509234805 | 22 | 56 | 9.7 | 19.3 | 0.00 | 0.00 | 0.00 | 24 | 1008.2 |
| 20260509233805 | 22 | 46 | 8.0 | 12.9 | 0.00 | 0.00 | 0.00 | 23 | 1008.2 |
| 20260509231804 | 22 | 39 | 6.4 | 19.3 | 0.00 | 0.00 | 0.00 | 20 | 1008.2 |
| 20260509231304 | 23 | 55 | 9.7 | 19.3 | 0.00 | 0.00 | 0.00 | 21 | 1008.2 |
| 20260509225805 | 23 | 80 | 9.7 | 19.3 | 0.00 | 0.00 | 0.00 | 22 | 1008.2 |
| 20260509225306 | 23 | 77 | 9.7 | 12.9 | 0.00 | 0.00 | 0.00 | 20 | 1008.2 |
| 20260509224305 | 22 | 354 | 8.0 | 16.1 | 0.00 | 0.00 | 0.00 | 20 | 1008.2 |
| 20260509223805 | 23 | 12 | 11.3 | 19.3 | 0.00 | 0.00 | 0.00 | 21 | 1008.2 |
| 20260509223304 | 23 | 29 | 9.7 | 16.1 | 0.00 | 0.00 | 0.00 | 20 | 1008.2 |
| 20260509221804 | 24 | 36 | 14.5 | 24.1 | 0.00 | 0.00 | 0.00 | 21 | 1008.2 |
| 20260509220805 | 23 | 66 | 14.5 | 32.2 | 0.00 | 0.00 | 0.00 | 21 | 1008.2 |
| 20260509220305 | 24 | 47 | 14.5 | 32.2 | 0.00 | 0.00 | 0.00 | 22 | 1008.2 |
| 20260509213804 | 23 | 29 | 11.3 | 20.9 | 0.00 | 0.00 | 0.00 | 21 | 1008.2 |
| 20260509213305 | 24 | 22 | 12.9 | 24.1 | 0.00 | 0.00 | 0.00 | 21 | 1008.2 |
| 20260509212805 | 24 | 54 | 16.1 | 27.4 | 0.00 | 0.00 | 0.00 | 21 | 1008.2 |